Rbgn^[z[y[W
メイン
   新天体発見情報
     Comet P/2020 S7 (PANSTARRS)
投稿するにはまず登録を

スレッド表示 | 古いものから 前のトピック | 次のトピック | 下へ
投稿者 スレッド
佐藤裕久
投稿日時: 2020-11-2 22:49
モデレータ
登録日: 2005-6-12
居住地: 日本
投稿: 2661
オンライン
Comet P/2020 S7 (PANSTARRS)

Y. Ramanjooloo (ハワイ大学, 天文学研究所)は、9月16日、HaleakalaにあるPan-STARRS1 1.8-m 
Ritchey-Chretien反射望遠鏡で得た画像から新彗星らしいものを見つけ小惑星センターへ通報した。
P. Veres (小惑星センター)は、この天体を小惑星センターのPCCP webpageに置いた。
R. Werykは、7月17.37日UT、Mauna Keaにある3.6-m Canada-France-Hawaii望遠鏡で得た3枚の
60秒gri-バンドフォローアップ画像からp.a. 220°に約1"の非常にかすかな尾があると書き込んだ。
非常に集光したコマは同様な明るさの近傍の恒星よりわずかに大きいだけである(半値全幅:FWHMは
0".68対0".60)。
佐藤英貴氏(東京都文京区, 9月17.6日UT, 60秒露出60枚のスタック, 0.51-m f/6.8アストログラフ, 
Siding Spring, NSW, 遠隔操作)の観測では恒星状で、4".9の円形範囲で測定した光度は20.0等で
あった。

彗星機能の報告は次の通り:

OC   Date        Reporter           Coma    Tail    PA          Exposures
F51  2020-09-22  R. Weryk           0".2                          4x60
K51  2020-10-13  R. Furgoni         0".8        
568  2020-10-20  R. Weryk           0".2                          3x90

発見位置は次のとおり、

     2020 UT             R.A. (2000) Decl.       Mag.
     Sept.15.40385   23 18 14.15   + 6 51 50.7   21.0
          15.41734   23 18 13.52   + 6 51 51.3   20.9
          15.43085   23 18 12.90   + 6 51 52.0   20.9
          15.44441   23 18 12.27   + 6 51 52.7   20.8
          16.35515   23 17 31.77   + 6 52 32.6   20.8
          16.36637   23 17 31.25   + 6 52 33.1   20.9
          16.37764   23 17 30.73   + 6 52 33.5   21.0
          16.38901   23 17 30.20   + 6 52 34.0   20.8
          16.40707   23 17 29.36   + 6 52 34.9   20.9
          16.42479   23 17 28.54   + 6 52 35.6   20.9
          16.44269   23 17 27.72   + 6 52 36.3   20.9

MPCの楕円軌道要素、位置推算表は次のとおり、

Orbital elements:
    P/2020 S7 (PANSTARRS)                                                       
Epoch 2020 Nov. 7.0 TT = JDT 2459160.5                                          
T 2020 Nov. 18.06857 TT                                 Rudenko                 
q   2.9610244            (2000.0)            P               Q                  
n   0.08754357     Peri.   40.40371     +0.97576205     -0.16228293             
a   5.0232701      Node   328.01925     +0.04316009     +0.80040258             
e   0.4105385      Incl.   16.09244     +0.21453583     +0.57707882             
P  11.3                                                                         
From 83 observations 2020 Aug. 22-Oct. 20, mean residual 0".4.                  
                                                                                
    P/2020 S7 (PANSTARRS)                                                       
Epoch 2032 Feb. 18.0 TT = JDT 2463280.5                                         
T 2032 Mar. 5.71316 TT                                  Rudenko                 
q   2.9595004            (2000.0)            P               Q                  
n   0.08751343     Peri.   41.26894     +0.97380413     -0.17287723             
a   5.0244235      Node   327.77507     +0.05150952     +0.80042809             
e   0.4109771      Incl.   16.08166     +0.22147750     +0.57395848             
P  11.3                                                                         
From 83 observations 2020 Aug. 22-Oct. 20, mean residual 0".4.                  
                                                                                
    P/2020 S7 (PANSTARRS)                                                       
Epoch 2020 Dec. 17.0 TT = JDT 2459200.5                                         
T 2020 Nov. 18.08597 TT                                 Rudenko                 
q   2.9610265            (2000.0)            P               Q                  
n   0.08755132     Peri.   40.40762     +0.97575067     -0.16235146             
a   5.0229739      Node   328.01935     +0.04321620     +0.80039907             
e   0.4105033      Incl.   16.09248     +0.21457630     +0.57706441             
P  11.3                                                                         
From 83 observations 2020 Aug. 22-Oct. 20, mean residual 0".4.                  
                                                                                
Ephemeris:
Date    TT    R. A. (2000) Decl.     Delta      r    Elong.  Phase   m1
2020 09 27    23 09 55.9 +06 55 54   2.0069  2.9797   163.0     5.7  20.8
...
2020 10 12    23 01 28.6 +06 53 00   2.0751  2.9705   148.2    10.2  20.8
...
2020 10 20    22 58 37.8 +06 51 42   2.1330  2.9669   140.1    12.4  20.9
...
2020 10 26    22 57 24.4 +06 52 20   2.1849  2.9647   134.2    13.9  20.9
2020 10 27    22 57 16.8 +06 52 38   2.1942  2.9644   133.2    14.1  20.9
2020 10 28    22 57 10.7 +06 53 00   2.2037  2.9641   132.2    14.4  20.9
...
2020 11 03    22 57 02.3 +06 56 33   2.2638  2.9626   126.4    15.6  21.0
...
2020 11 11    22 58 06.6 +07 05 32   2.3521  2.9614   119.0    17.0  21.1
...
2020 11 26    23 03 48.8 +07 37 46   2.5365  2.9615   105.8    18.7  21.2

(MPEC 2020-U243、CBET 4875)


スレッド表示 | 古いものから 前のトピック | 次のトピック | トップ

投稿するにはまず登録を
 
© 1999 Tsutomu Seki.